Location: Crescent
(42.8242°N, 73.7329°W)
Time: 02:13:13
(UTC+00:00)

Transit 4A - Pass Details

Date: 20 February 2026
Orbit: 863 x 978 km, 66.8° (Epoch: 13 March)

Event Time Altitude Azimuth Distance (km) Brightness Sun altitude
Rises 09:22:22 0° 244° (WSW) 3,460 - -26.8°
Reaches altitude 10° 09:25:09 10° 255° (WSW) 2,538 - -26.3°
Maximum altitude 09:30:13 29° 315° (NW) 1,584 - -25.3°
Exits shadow 09:31:08 28° 331° (NNW) 1,630 9.0 -25.2°
Drops below altitude 10° 09:35:25 10° 14° (NNE) 2,612 10.5 -24.4°
Sets 09:38:21 0° 26° (NNE) 3,578 11.4 -23.9°
